Location: Dodgeville
(42.9600°N, 90.1300°W)
Time: 08:42:50
(UTC-06:00)

Uosat F - Visible Passes

Search period start: 01 February 2015 00:00
Search period end: 11 February 2015 00:00
Orbit: 751 x 762 km, 98.7° (Epoch: 30 January)

Date Brightness Start Highest point End Pass type
(mag) Time Alt. Az. Time Alt. Az. Time Alt. Az.
01 Feb 11.6 04:30:57 10° NNE 04:35:55 55° E 04:38:09 31° SSE visible
01 Feb 12.3 06:10:42 10° NNW 06:14:21 20° WNW 06:17:51 10° WSW visible
02 Feb 13.2 03:52:24 10° NE 03:56:24 24° E 03:58:46 18° SE visible
02 Feb 11.4 05:30:38 10° N 05:35:24 42° WNW 05:38:48 18° SW visible
03 Feb 11.0 04:51:11 10° NNE 04:56:16 85° ESE 04:59:25 24° SSW visible
03 Feb 12.7 06:31:56 10° NNW 06:34:27 13° WNW 06:36:43 10° W visible
04 Feb 12.4 04:12:15 10° NNE 04:16:53 36° E 04:20:03 18° SSE visible
04 Feb 11.9 05:51:16 10° N 05:55:35 28° WNW 05:59:49 10° WSW visible
05 Feb 13.7 03:34:18 10° NE 03:37:13 16° E 03:40:22 10° SE visible
05 Feb 11.0 05:11:32 10° N 05:16:33 63° WNW 05:20:45 15° SSW visible
06 Feb 11.6 04:32:19 10° NNE 04:37:18 56° E 04:41:26 15° S visible
06 Feb 12.3 06:12:06 10° NNW 06:15:44 20° WNW 06:19:12 10° WSW visible
07 Feb 13.1 03:53:45 10° NE 03:57:48 24° E 04:01:55 10° SSE visible
07 Feb 11.4 05:32:01 10° N 05:36:46 42° WNW 05:41:29 10° SW visible
08 Feb 11.0 04:52:33 10° NNE 04:57:39 86° ESE 05:02:43 10° SSW visible
08 Feb 12.7 06:33:21 10° NNW 06:35:49 13° WNW 06:38:03 10° W visible
09 Feb 12.4 04:13:37 10° NNE 04:18:16 37° E 04:22:57 10° SSE visible
09 Feb 11.9 05:52:39 10° N 05:56:57 28° WNW 06:01:11 10° WSW visible
10 Feb 13.7 03:35:37 10° NE 03:38:37 16° E 03:41:49 10° SE visible
10 Feb 11.0 05:12:55 10° N 05:17:55 62° WNW 05:22:54 10° SSW visible
